星链-11747 (STARLINK-11747)

导读 | 豆包AI

STARLINK-11747是美国SpaceX星链星座卫星,于2025年6月10日发射入轨,属于星链互联网星座扩容项目。星链系统旨在通过低轨卫星群实现全球覆盖的高速互联网接入,该卫星承担提供宽带网络服务任务,进一步扩展了星链星座全球覆盖范围与服务能力。

基本信息
目录编号:
64322
目录名称:
STARLINK-11747
国际标识:
2025-124F
轨道中心:
EARTH
卫星名称:
星链-11747
卫星全名:
星链-11747 (STARLINK-11747)
卫星状态:
在轨 (已飞行277 天)
发射日期:
2025-06-10 UTC
国别 :
美国 (US)
星等 :
--
轨道信息
数据来源 国际轨道数据
星历时间: 2026-03-14T09:51:09+0800
15小时前
查看轨道信息
半长轴: 6734.133km
偏心率: 0.0002359
轨道倾角: 43.000°
近地点辐角 227.178°
升交点赤经 2.838°
平近点角 132.889°
近地点: 354.407km
远地点: 357.585km
周期: 91.660分钟
每日圈数: 15.710148
详细信息
固有亮度:
5
最大亮度:
2.5
卫星平台:
Starlink V1.0
覆盖范围:
全球
运营商:
太空探索技术公司
运营商所在国:
美国
制造商(研发单位):
太空探索技术公司
制造商所在国:
美国
使用方式:
暂无
卫星简介
Starlink 计划是 SpaceX 推出的全球卫星互联网项目,通过发射低轨道卫星,为全球尤其是偏远地区提供高速、低延迟的互联网服务。自 2019 年起,Starlink 已部署数千颗卫星,旨在缩小全球数字鸿沟,推动互联网普及。该项目还为军事、航空等行业提供通信支持,带来广泛经济效益。
2D轨道图
3D轨道图
轨道高度分析图
轨道倾角分析图
轨道综合分析图
查看轨道综合分析图